This demonstration page uses our WeatherBlox Daily Observations layout. Learn more.

Left ArrowRight Arrow

39.92423, -83.80882

Hourly Observations for August 11, 2022

Temp ( °F °C ) Dew Point ( °F °C ) Humidity (%) Winds ( mph kmh ) Pressure ( in mb ) Visibility ( mi km ) Precip ( " mm )
12:56 am 00:56 Clear N/A N/A N/A NW 3 6 30.16 1021 10 16 0.00 0.00
1:56 am 01:56 Clear N/A N/A N/A Calm 30.16 1021 7 11 0.00 0.00
2:17 am 02:17 Clear with Mist and Fog N/A N/A N/A Calm 30.16 1021 2 3 0.00 0.00
2:24 am 02:24 Clear with Mist and Fog N/A N/A N/A Calm 30.16 1021 1 1 0.00 0.00
2:41 am 02:41 Hazy N/A N/A N/A Calm 30.16 1021 4 6 0.00 0.00
2:53 am 02:53 Clear with Mist and Fog N/A N/A N/A Calm 30.16 1021 1 2 0.00 0.00
2:56 am 02:56 Clear with Mist and Fog N/A N/A N/A Calm 30.16 1021 1 2 0.00 0.00
3:07 am 03:07 Clear with Mist and Fog N/A N/A N/A W 3 6 30.18 1022 2 3 0.00 0.00
3:15 am 03:15 Hazy N/A N/A N/A W 5 7 30.16 1021 4 6 0.00 0.00
3:33 am 03:33 Clear with Mist and Fog N/A N/A N/A W 3 6 30.16 1021 2 3 0.00 0.00
3:44 am 03:44 Clear with Mist and Fog N/A N/A N/A W 3 6 30.16 1021 1 1 0.00 0.00
4:06 am 04:06 Clear with Mist and Fog N/A N/A N/A W 5 7 30.18 1022 3 5 0.00 0.00
4:26 am 04:26 Clear with Mist and Fog N/A N/A N/A Calm 30.16 1021 2 3 0.00 0.00
4:45 am 04:45 Clear with Mist and Fog N/A N/A N/A W 3 6 30.16 1021 1 1 0.00 0.00
5:00 am 05:00 Clear with Mist and Fog N/A N/A N/A W 5 7 30.16 1021 2 3 0.00 0.00
5:11 am 05:11 Clear with Mist and Fog N/A N/A N/A WSW 3 6 30.16 1021 1 2 0.00 0.00
5:21 am 05:21 Clear with Mist and Fog N/A N/A N/A SW 3 6 30.16 1021 2 3 0.00 0.00
5:30 am 05:30 Clear with Mist and Fog N/A N/A N/A WSW 3 6 30.16 1021 1 2 0.00 0.00
5:33 am 05:33 Clear with Mist and Fog N/A N/A N/A WSW 3 6 30.16 1021 1 1 0.00 0.00
5:45 am 05:45 Clear with Fog N/A N/A N/A SW 5 7 30.15 1021 1 1 0.00 0.00
5:50 am 05:50 Clear with Mist and Fog N/A N/A N/A SW 3 6 30.15 1021 1 2 0.00 0.00
5:56 am 05:56 Clear with Mist and Fog N/A N/A N/A SW 3 6 30.15 1021 2 3 0.00 0.00
6:08 am 06:08 Mostly Clear with Mist and Fog N/A N/A N/A WSW 3 6 30.15 1021 1 2 0.00 0.00
6:13 am 06:13 Mostly Clear with Fog N/A N/A N/A WSW 3 6 30.15 1021 1 1 0.00 0.00
6:31 am 06:31 Mostly Cloudy with Mist and Fog N/A N/A N/A Calm 30.16 1021 3 4 0.00 0.00
6:37 am 06:37 Mostly Cloudy with Fog N/A N/A N/A W 3 6 30.16 1021 0 0 0.00 0.00
6:56 am 06:56 Partly Cloudy with Fog N/A N/A N/A SW 3 6 30.16 1021 0 0 0.00 0.00
7:22 am 07:22 Partly Cloudy with Fog N/A N/A N/A W 3 6 30.18 1022 0 0 0.00 0.00
7:36 am 07:36 Partly Cloudy with Mist and Fog N/A N/A N/A Calm 30.18 1022 2 3 0.00 0.00
7:56 am 07:56 Sunny with Mist and Fog N/A N/A N/A Calm 30.18 1022 2 3 0.00 0.00
8:18 am 08:18 Hazy N/A N/A N/A W 3 6 30.18 1022 4 6 0.00 0.00
8:56 am 08:56 Sunny 66 18.9 N/A N/A NW 5 7 30.12 1020 8 13 0.00 0.00
9:56 am 09:56 Sunny 71 21.7 70 21.1 96 96 Calm 30.10 1019 10 16 0.00 0.00
10:56 am 10:56 Sunny 75 23.9 66 18.9 74 74 N 5 7 30.09 1019 10 16 0.00 0.00
11:56 am 11:56 Mostly Sunny 77 25 66 18.9 69 69 undefined N/A 30.07 1018 10 16 0.00 0.00
12:20 pm 12:20 Mostly Cloudy 75 24 66 19 74 74 NNW 5 7 30.09 1019 10 16 0.00 0.00
12:32 pm 12:32 Mostly Cloudy 79 26 66 19 65 65 NNW 5 7 30.08 1019 10 16 0.00 0.00
12:56 pm 12:56 Partly Cloudy 78 25.6 66 18.9 67 67 VRB 5 7 30.07 1018 10 16 0.00 0.00
1:56 pm 13:56 Mostly Cloudy 80 26.7 65 18.3 60 60 VRB 3 6 30.06 1018 10 16 0.00 0.00
2:56 pm 14:56 Cloudy 78 25.6 65 18.3 64 64 NNW 8 13 30.06 1018 10 16 0.00 0.00
3:56 pm 15:56 Cloudy 78 25.6 65 18.3 64 64 NNW 8 13 30.04 1017 10 16 0.00 0.00
4:56 pm 16:56 Cloudy 78 25.6 66 18.9 67 67 NNW 5 7 30.03 1017 10 16 0.00 0.00
5:56 pm 17:56 Cloudy 76 24.4 69 20.6 79 79 N 8 13 30.03 1017 10 16 0.00 0.00
6:56 pm 18:56 Sunny 75 23.9 67 19.4 76 76 N 12 19 30.03 1017 10 16 0.00 0.00
7:35 pm 19:35 Mostly Cloudy 73 23 64 18 73 73 NNE 10 17 30.04 1017 10 16 0.00 0.00
7:56 pm 19:56 Cloudy 73 22.8 63 17.2 71 71 NNE 8 13 30.04 1017 10 16 0.00 0.00
8:56 pm 20:56 Cloudy 70 21.1 64 17.8 81 81 NNW 5 7 30.09 1019 10 16 0.00 0.00
9:56 pm 21:56 Mostly Clear 67 19.4 67 19.4 100 100 NNW 3 6 30.11 1020 10 16 0.00 0.00
10:56 pm 22:56 Cloudy 66 18.9 65 18.3 96 96 NNE 6 9 30.12 1020 10 16 0.00 0.00
11:56 pm 23:56 Clear 62 16.7 N/A N/A N 3 6 30.12 1020 10 16 0.00 0.00

Powered by AerisWeather